{"data":{"norad_id":54796,"intl_designator":"2022-175AQ","name":"STARLINK-5415","alt_names":[],"object_type":"PAYLOAD","status":"ACTIVE","operator":null,"country":"US","launch_date":"2022-12-17","launch_site_code":"AFETR","launch_vehicle":null,"mission":null,"orbit_class":"UNKNOWN","rcs_meters":null,"size_class":null,"mass_kg":null,"dimensions":null,"purposes":["comms"],"wikipedia_slug":null,"has_3d_model":false,"image_url":null,"decayed_at":null,"tle_current":{"epoch":"2026-05-25T03:13:43.950144Z","epoch_age_seconds":53707,"freshness":"FRESH","line1":"1 54796U 22175AQ  26145.13453646 -.00000241  00000+0  29788-5 0  9994","line2":"2 54796  53.2141  45.6924 0001377  71.5925 288.5217 15.08838472191679","mean_motion":15.08838472,"eccentricity":0.0001377,"inclination_deg":53.2141,"raan_deg":45.6924,"arg_perigee_deg":71.5925,"mean_anomaly_deg":288.5217,"bstar":2.9788e-6,"rev_number":19167,"period_min":95.437651327332,"perigee_km":538.79546668007,"apogee_km":540.70065222545,"semimajor_km":6917.8850594528,"source":"CELESTRAK","updated_at":"2026-05-25T13:38:17.695850Z"}}}